Location: Mountain_View
(35.6670°N, 81.4000°W)
Time: 05:38:36
(UTC-04:00)

Amateur Radio Satellites - All Passes

Search period start: 18 September 2014 05:08
Search period end: 19 September 2014 05:08
Location: Mountain_View, 35.6670°N, 81.4000°W

Satellite Date Start Highest point End Downlink Frequencies (MHz)
Time Altitude Azimuth
TMSAT-1 18 Sep 05:46:44 05:50:24 19° 294° (WNW) 05:54:03 436.925 FM
KITSAT 1 18 Sep 05:52:12 06:00:19 79° 62° (ENE) 06:08:23 435.175 FM
JAS-2 18 Sep 05:52:17 05:55:35 15° 93° (E) 05:59:02 435.800 - 435.900 CW/SSB, 435.910 FM
OPAL 18 Sep 06:24:59 06:28:52 21° 263° (W) 06:32:47 ?
Uosat F 18 Sep 06:26:18 06:31:01 42° 289° (WNW) 06:35:43 435.120 FM
PANSAT 18 Sep 06:26:59 06:29:53 20° 192° (SSW) 06:32:48 not established
AO-7 18 Sep 06:32:00 06:40:06 61° 292° (WNW) 06:48:12 29.400 - 29.500 MHz
RS-15 18 Sep 06:35:03 06:45:35 48° 309° (NW) 06:56:04 29.354 - 29.394 USB, Beacon 29.352 USB
STRAND 1 18 Sep 07:01:56 07:06:45 46° 72° (ENE) 07:11:36 ?
Hamsat 18 Sep 07:05:29 07:09:41 57° 100° (E) 07:13:49 145.90 MHz
SO-50 18 Sep 07:21:39 07:24:46 17° 47° (NE) 07:27:54 436.795 FM
JAS-2 18 Sep 07:34:52 07:40:54 76° 285° (WNW) 07:47:45 435.800 - 435.900 CW/SSB, 435.910 FM
KITSAT 1 18 Sep 07:49:40 07:54:45 18° 258° (WSW) 07:59:50 435.175 FM
SO-67 18 Sep 08:11:18 08:14:35 40° 99° (E) 08:17:51 435.3500 MHz FM
AO-7 18 Sep 08:28:59 08:31:12 11° 311° (NW) 08:33:24 29.400 - 29.500 MHz
STRAND 1 18 Sep 08:42:48 08:46:08 18° 266° (W) 08:49:29 ?
Hamsat 18 Sep 08:44:13 08:45:05 11° 295° (WNW) 08:45:57 145.90 MHz
RS-15 18 Sep 08:55:42 09:01:39 16° 339° (NNW) 09:07:39 29.354 - 29.394 USB, Beacon 29.352 USB
SO-50 18 Sep 09:00:57 09:05:42 60° 244° (WSW) 09:10:29 436.795 FM
MaSat-1 18 Sep 09:08:44 09:13:40 67° 111° (ESE) 09:18:39 437.345 MHz
UOSAT-12 18 Sep 09:08:54 09:11:50 16° 47° (NE) 09:14:45 437.025 FM, 437.400 FM
HO-68 18 Sep 09:11:20 09:16:05 19° 93° (E) 09:20:48 435.675 MHz FM
ISS 18 Sep 09:45:32 09:47:54 18° 29° (NNE) 09:50:16 145.800 FM
Oscar 11 18 Sep 10:10:03 10:12:37 15° 93° (E) 10:15:11 145.825 FM, Beacon 2401.500 USB
UKube-1 18 Sep 10:24:05 10:27:58 31° 98° (E) 10:31:50 145.840 MHz, 145.915 MHz
UOSAT-12 18 Sep 10:47:44 10:52:23 60° 244° (WSW) 10:56:55 437.025 FM, 437.400 FM
MaSat-1 18 Sep 10:48:00 10:50:53 15° 306° (NW) 10:53:45 437.345 MHz
HO-68 18 Sep 10:57:09 11:04:16 70° 288° (WNW) 11:11:23 435.675 MHz FM
RS-15 18 Sep 11:15:24 11:20:56 15° 18° (NNE) 11:26:32 29.354 - 29.394 USB, Beacon 29.352 USB
ISS 18 Sep 11:21:35 11:24:49 50° 225° (SW) 11:28:02 145.800 FM
FUNcube-1 18 Sep 11:30:16 11:34:48 54° 100° (E) 11:39:16 145.950 - 145.970 MHz USB
Oscar 11 18 Sep 11:44:54 11:48:56 38° 287° (WNW) 11:52:55 145.825 FM, Beacon 2401.500 USB
UKube-1 18 Sep 12:00:47 12:03:56 20° 292° (WNW) 12:07:04 145.840 MHz, 145.915 MHz
Sapphire 18 Sep 12:08:31 12:12:34 22° 106° (ESE) 12:16:38 437.095 MHz 1200 baud AX-25 AFSK
PCSat 18 Sep 12:34:29 12:39:33 43° 110° (ESE) 12:44:38 145.825 MHz
HO-68 18 Sep 12:48:35 12:50:41 11° 306° (NW) 12:52:48 435.675 MHz FM
Oscar 16 18 Sep 12:49:10 12:51:17 13° 62° (ENE) 12:53:25 437.025 USB, Beacon 2401.1428
FUNcube-1 18 Sep 13:08:25 13:10:40 14° 295° (WNW) 13:12:55 145.950 - 145.970 MHz USB
RS-15 18 Sep 13:27:03 13:37:29 43° 49° (NE) 13:48:14 29.354 - 29.394 USB, Beacon 29.352 USB
ITAMSAT 1 18 Sep 13:29:40 13:31:45 12° 62° (ENE) 13:33:50 435.822 SSB
Uribyol 2 18 Sep 13:33:26 13:36:14 15° 63° (ENE) 13:39:01 436.500 FM
Oscar 19 18 Sep 13:46:31 13:51:26 45° 72° (ENE) 13:56:23 437.125 CW, 437.150 USB
JAS-1B 18 Sep 13:46:48 13:54:28 36° 68° (ENE) 14:01:05 435.800 - 435.900 CW/SSB
Sapphire 18 Sep 13:50:31 13:55:38 43° 302° (WNW) 14:00:48 437.095 MHz 1200 baud AX-25 AFSK
AO-27 18 Sep 14:01:45 14:06:02 27° 68° (ENE) 14:10:19 436.795 MHz FM
PCSat 18 Sep 14:18:45 14:23:06 24° 307° (NW) 14:27:29 145.825 MHz
Oscar 16 18 Sep 14:24:48 14:29:58 73° 258° (WSW) 14:35:11 437.025 USB, Beacon 2401.1428
Oscar 10/S400 18 Sep 14:39:57 14:59:07 26° 150° (SSE) 15:14:06 145.825 - 145.975 CW/USB, Beacon 145.810 USB
Gurwin Techsat 1B 18 Sep 14:46:13 14:50:55 33° 70° (ENE) 14:55:37 435.225 FM
AO-Echo 18 Sep 14:49:12 14:53:59 89° 257° (WSW) 14:58:43 ?
ITAMSAT 1 18 Sep 15:05:26 15:10:34 72° 258° (WSW) 15:15:45 435.822 SSB
Uribyol 2 18 Sep 15:10:04 15:15:08 61° 259° (WSW) 15:20:16 436.500 FM
TMSAT-1 18 Sep 15:23:36 15:28:44 56° 73° (ENE) 15:33:55 436.925 FM
Oscar 19 18 Sep 15:27:24 15:30:57 19° 266° (W) 15:34:31 437.125 CW, 437.150 USB
JAS-1B 18 Sep 15:36:17 15:44:49 46° 260° (W) 15:52:07 435.800 - 435.900 CW/SSB
AO-7 18 Sep 15:36:32 15:43:20 29° 60° (ENE) 15:50:07 29.400 - 29.500 MHz
RS-15 18 Sep 15:39:20 15:50:02 54° 249° (WSW) 16:01:13 29.354 - 29.394 USB, Beacon 29.352 USB
AO-27 18 Sep 15:40:50 15:45:23 31° 263° (W) 15:49:58 436.795 MHz FM
Uosat F 18 Sep 15:59:23 16:02:58 20° 66° (ENE) 16:06:32 435.120 FM
Gurwin Techsat 1B 18 Sep 16:26:28 16:30:51 26° 264° (W) 16:35:16 435.225 FM
OPAL 18 Sep 16:59:57 17:02:17 13° 94° (E) 17:04:36 ?
TMSAT-1 18 Sep 17:05:57 17:08:58 15° 268° (W) 17:11:59 436.925 FM
AO-7 18 Sep 17:27:26 17:35:35 59° 257° (WSW) 17:43:45 29.400 - 29.500 MHz
Uosat F 18 Sep 17:36:44 17:41:25 41° 261° (W) 17:46:08 435.120 FM
JAS-2 18 Sep 17:45:54 17:50:26 29° 69° (ENE) 17:54:51 435.800 - 435.900 CW/SSB, 435.910 FM
Saudisat 1A 18 Sep 17:54:11 17:58:32 69° 117° (ESE) 18:02:56 436.775 MHz
Hamsat 18 Sep 17:56:04 17:59:49 29° 71° (ENE) 18:03:35 145.90 MHz
KITSAT 1 18 Sep 18:26:59 18:30:26 13° 100° (E) 18:33:53 435.175 FM
OPAL 18 Sep 18:36:26 18:41:33 63° 288° (WNW) 18:46:33 ?
MaSat-1 18 Sep 19:05:25 19:09:09 70° 65° (ENE) 19:12:18 437.345 MHz
STRAND 1 18 Sep 19:16:18 19:20:00 20° 94° (E) 19:23:41 ?
JAS-2 18 Sep 19:31:02 19:35:31 27° 263° (W) 19:39:52 435.800 - 435.900 CW/SSB, 435.910 FM
Hamsat 18 Sep 19:32:27 19:35:44 21° 265° (W) 19:39:02 145.90 MHz
Saudisat 1A 18 Sep 19:36:30 19:38:34 13° 314° (NW) 19:40:39 436.775 MHz
HO-68 18 Sep 19:41:16 19:42:37 11° 53° (NE) 19:43:59 435.675 MHz FM
SO-67 18 Sep 20:14:02 20:17:18 40° 261° (W) 20:20:35 435.3500 MHz FM
KITSAT 1 18 Sep 20:16:31 20:24:36 83° 116° (ESE) 20:32:43 435.175 FM
STRAND 1 18 Sep 20:54:30 20:59:18 41° 289° (WNW) 21:04:06 ?
Sapphire 18 Sep 21:00:22 21:02:13 12° 45° (NE) 21:04:04 437.095 MHz 1200 baud AX-25 AFSK
UKube-1 18 Sep 21:17:30 21:20:37 20° 68° (ENE) 21:23:45 145.840 MHz, 145.915 MHz
HO-68 18 Sep 21:21:56 21:28:59 67° 71° (ENE) 21:36:03 435.675 MHz FM
PCSat 18 Sep 21:25:54 21:29:53 20° 51° (NE) 21:33:51 145.825 MHz
KITSAT 1 18 Sep 22:14:52 22:20:56 23° 316° (NW) 22:27:01 435.175 FM
FUNcube-1 18 Sep 22:24:05 22:27:52 29° 71° (ENE) 22:31:45 145.950 - 145.970 MHz USB
Oscar 11 18 Sep 22:36:25 22:40:46 73° 258° (WSW) 22:45:09 145.825 FM, Beacon 2401.500 USB
Sapphire 18 Sep 22:41:03 22:46:30 80° 63° (ENE) 22:51:55 437.095 MHz 1200 baud AX-25 AFSK
UKube-1 18 Sep 22:52:46 22:56:35 31° 262° (W) 23:00:27 145.840 MHz, 145.915 MHz
PCSat 18 Sep 23:08:20 23:13:37 53° 248° (WSW) 23:18:51 145.825 MHz
HO-68 18 Sep 23:12:15 23:17:08 20° 267° (W) 23:22:03 435.675 MHz FM
SO-50 18 Sep 23:12:59 23:17:26 89° 300° (WNW) 23:22:01 436.795 FM
FUNcube-1 19 Sep 00:00:57 00:04:15 21° 266° (W) 00:07:37 145.950 - 145.970 MHz USB
Sapphire 19 Sep 00:27:53 00:29:09 11° 258° (WSW) 00:30:25 437.095 MHz 1200 baud AX-25 AFSK
UOSAT-12 19 Sep 00:55:44 01:00:19 83° 118° (ESE) 01:05:02 437.025 FM, 437.400 FM
SO-50 19 Sep 00:57:35 00:58:41 11° 317° (NW) 00:59:48 436.795 FM
Oscar 19 19 Sep 02:01:59 02:05:45 20° 94° (E) 02:09:28 437.125 CW, 437.150 USB
AO-40 19 Sep 02:03:21 02:59:11 14° 241° (WSW) 04:19:29 Beacon 2401.320
AO-27 19 Sep 02:19:37 02:21:21 12° 91° (E) 02:23:04 436.795 MHz FM
Saudisat 1A 19 Sep 02:24:07 02:27:45 24° 52° (NE) 02:31:22 436.775 MHz
ISS 19 Sep 02:25:53 02:28:27 21° 130° (SE) 02:31:02 145.800 FM
UOSAT-12 19 Sep 02:39:08 02:41:05 12° 316° (NW) 02:43:04 437.025 FM, 437.400 FM
Oscar 16 19 Sep 02:39:39 02:44:41 51° 100° (E) 02:49:41 437.025 USB, Beacon 2401.1428
PANSAT 19 Sep 02:42:25 02:45:17 20° 167° (SSE) 02:48:09 not established
AO-Echo 19 Sep 02:59:12 03:03:41 36° 98° (E) 03:08:16 ?
Gurwin Techsat 1B 19 Sep 03:06:19 03:09:38 17° 93° (E) 03:12:56 435.225 FM
ITAMSAT 1 19 Sep 03:21:20 03:26:26 52° 100° (E) 03:31:30 435.822 SSB
JAS-1B 19 Sep 03:25:17 03:30:56 61° 102° (ESE) 03:36:38 435.800 - 435.900 CW/SSB
Uribyol 2 19 Sep 03:25:42 03:30:53 62° 101° (ESE) 03:36:02 436.500 FM
Oscar 19 19 Sep 03:40:23 03:45:12 41° 289° (WNW) 03:49:59 437.125 CW, 437.150 USB
TMSAT-1 19 Sep 03:42:53 03:47:25 28° 96° (E) 03:51:54 436.925 FM
RS-15 19 Sep 03:48:21 03:57:44 33° 105° (ESE) 04:06:54 29.354 - 29.394 USB, Beacon 29.352 USB
AO-27 19 Sep 03:56:05 04:01:17 70° 286° (WNW) 04:06:28 436.795 MHz FM
ISS 19 Sep 04:01:59 04:05:01 32° 324° (NW) 04:08:04 145.800 FM
Saudisat 1A 19 Sep 04:03:27 04:07:18 30° 247° (WSW) 04:11:09 436.775 MHz
OPAL 19 Sep 04:11:28 04:15:01 19° 63° (ENE) 04:18:35 ?
KITSAT 1 19 Sep 04:13:47 04:20:18 26° 46° (NE) 04:26:47 435.175 FM
Oscar 16 19 Sep 04:20:17 04:23:35 17° 295° (WNW) 04:26:52 437.025 USB, Beacon 2401.1428
PANSAT 19 Sep 04:21:41 04:24:59 27° 180° (S) 04:28:17 not established
AO-Echo 19 Sep 04:38:35 04:42:13 22° 292° (WNW) 04:45:55 ?
Gurwin Techsat 1B 19 Sep 04:44:43 04:49:51 52° 287° (WNW) 04:54:59 435.225 FM
